Location: Marcé
(47.5801°N, 0.3280°W)
Time: 00:42:08
(UTC+02:00)

ZHUHAI-1 OHS-01 - Pass Details

Date: 05 July 2022
Orbit: 491 x 508 km, 97.2° (Epoch: 10 August)

Event Time Altitude Azimuth Distance (km) Brightness Sun altitude
Exits shadow 00:14:01 - 222° (SW) 2,458 ? -15.2°
Reaches altitude 10° 00:17:47 10° 266° (W) 1,705 ? -15.5°
Maximum altitude 00:18:10 10° 272° (W) 1,699 ? -15.6°
Drops below altitude 10° 00:18:33 10° 278° (W) 1,708 ? -15.6°
Sets 00:22:44 0° 325° (NW) 2,608 ? -15.9°
